Regional Weather Roundup
Issued by NWS

Home | Current Version | Previous Version | Graphics & Text | Print | Product List | Glossary On
Versions: 1 2 3 4 5 6 7 8 9 10 11 12 13 14 15 16 17 18 19 20 21 22 23 24 25 26 27 28 29 30 31 32 33 34 35 36 37 38 39 40 41 42 43 44 45 46 47 48 49 50
690
ASUS43 KBIS 311102
RWRND

NORTH DAKOTA REGIONAL WEATHER ROUNDUP
NATIONAL WEATHER SERVICE BISMARCK ND
600 AM CDT TUE MAY 31 2016

NOTE: "FAIR" INDICATES FEW OR NO CLOUDS BELOW 12,000 FEET WITH NO
SIGNIFICANT WEATHER AND/OR OBSTRUCTIONS TO VISIBILITY.


NDZ001>003-009>011-017-311200-
NORTHWEST NORTH DAKOTA

CITY           SKY/WX    TMP DP  RH WIND       PRES   REMARKS
WILLISTON      CLOUDY    51  48  89 W9        29.76S
MINOT          LGT RAIN  57  54  89 NW6       29.68F FOG
MINOT AFB      LGT RAIN  55  54  97 N8        29.67F
$$

NDZ018>021-031>035-040>046-311200-
SOUTHWEST NORTH DAKOTA

CITY           SKY/WX    TMP DP  RH WIND       PRES   REMARKS
BISMARCK       CLEAR     49  45  86 W17       29.79R
DICKINSON      MOCLDY    45  42  89 W16       29.80F
GARRISON         N/A     51  49  92 W16       29.72F
HETTINGER ARPT PTCLDY    44  40  85 W17G25    29.87F
$$

NDZ004>008-012>016-024-026-027-054-311200-
NORTHEAST NORTH DAKOTA

CITY           SKY/WX    TMP DP  RH WIND       PRES   REMARKS
GRAND FORKS    CLOUDY    60  57  89 S13       29.68R
GRND FRKS AFB  CLOUDY    59  58  96 S10       29.68F
DEVILS LAKE    CLOUDY    58  56  93 S13       29.65F
$$

NDZ022-023-025-028>030-036>039-047>053-311200-
SOUTHEAST NORTH DAKOTA

CITY           SKY/WX    TMP DP  RH WIND       PRES   REMARKS
FARGO          CLOUDY    62  58  86 S12       29.73S
JAMESTOWN      CLOUDY    57  55  93 SW10      29.72R
$$





USA.gov is the U.S. government's official web portal to all federal, state and local government web resources and services.